Regional Weather Roundup
Issued by NWS

Home | Current Version | Previous Version | Text Only | Print | Product List | Glossary Off
Versions: 1 2 3 4 5 6 7 8 9 10 11 12 13 14 15 16 17 18 19 20 21 22 23 24 25 26 27

000
ASUS45 KSLC 161310
RWRUT

UTAH REGIONAL WEATHER ROUNDUP
NATIONAL WEATHER SERVICE SALT LAKE CITY UT
700 AM MDT MON OCT 16 2017

UTZ001>011-023>025-161400-

NORTHERN UTAH

CITY           SKY/WX    TMP DP  RH WIND       PRES   REMARKS
BRIGHAM CITY   CLEAR     29  21  74 CALM      30.42S
HILL AFB       PTCLDY    36  18  48 E18       30.39S WCI  25
LOGAN          CLEAR     25  21  85 CALM      30.42S
OGDEN          PTCLDY    34  21  59 S6        30.40R WCI  29
SALT LAKE CITY PTCLDY    36  27  69 SE7       30.39F WCI  30
TOOELE VALLEY  PTCLDY    28  21  74 S9        30.40F WCI  20
WENDOVER       MOCLDY    29  17  61 CALM      30.41S
WEST JORDAN    PTCLDY    37  24  59 S6        30.40S WCI  32

$$

UTZ011>015-024>027-161400-

CENTRAL/NORTHEAST UTAH

CITY           SKY/WX    TMP DP  RH WIND       PRES   REMARKS
PROVO AIRPORT  PTCLDY    30  23  75 CALM      30.42F
MOAB/CANYONLAN MOCLDY    31   9  39 CALM      30.44R
DELTA          MOCLDY    30  25  80 CALM      30.41S
PRICE          PTCLDY    28   4  35 NE3       30.45R
ROOSEVELT      CLOUDY    25  18  74 W7        30.48S WCI  17
VERNAL         CLOUDY    24  15  68 W3        30.46S

$$

UTZ013>016-019>022-027-161400-

SOUTHERN UTAH

CITY           SKY/WX    TMP DP  RH WIND       PRES   REMARKS
BRYCE CANYON   PTCLDY    20  -8  28 W8        30.51S WCI  10
CEDAR CITY     PTCLDY    27  11  51 CALM      30.40S
MILFORD        MOCLDY    21   9  59 S6        30.41S WCI  13
ST GEORGE      SUNNY     46   4  17 CALM      30.35R
HANKSVILLE     MOCLDY    27  10  50 SE5       30.48S WCI  21
BLANDING         N/A     34   4  28 N8        30.55S WCI  27

$$

REGIONAL REPORTS     COLORADO/ARIZONA

CITY           SKY/WX    TMP DP  RH WIND       PRES   REMARKS
CRAIG, CO      CLOUDY    21  16  81 CALM      30.47S
GRAND JUNCTION CLOUDY    30  15  53 E7        30.46S WCI  23
RIFLE, CO      CLOUDY    26  17  68 CALM      30.52R
MONTROSE, CO   CLOUDY    26  13  57 S7        30.52R WCI  18
CORTEZ, CO     CLOUDY    22  14  71 NE3       30.49S
COLORADO CITY    N/A     32   3  29 SE6       30.41S WCI  26
PAGE, AZ       MOCLDY    41  14  33 CALM      30.41S
GRAND CANYON   PTCLDY    27  -1  30 CALM      30.46R
KINGMAN, AZ    PTCLDY    44  13  28 SE7       30.27R
FLAGSTAFF, AZ  PTCLDY    28   5  37 CALM      30.48R

$$

REGIONAL REPORTS    NEVADA/IDAHO/WYOMING

CITY           SKY/WX    TMP DP  RH WIND       PRES   REMARKS
LAS VEGAS, NV  CLEAR     56  14  19 CALM      30.24R
ELY, NY        MOCLDY    22  -3  33 S17       30.43S WCI   8
ELKO, NV       CLOUDY    21  12  68 SE3       30.41R
POCATELLO, ID  CLOUDY    21  20  96 CALM      30.40R
BURLEY, ID     CLEAR     25  22  88 CALM      30.36R
FORT BRIDGER,    N/A     37   2  22 W10       30.44F WCI  30
EVANSTON, WY   CLOUDY    36  12  37 S8        30.42F WCI  30
ROCK SPRINGS,  CLOUDY    32  12  43 CALM      30.42R

$$




USA.gov is the U.S. government's official web portal to all federal, state and local government web resources and services.